Theta_e
330 329 333 336 338 339 338 339 334 334 338 338 342 341 338 338 338 336 334 335 335 334 338 337 336 335 335 335 335 335 336 329 327 333 333 336 336 339 339 337 337 337 335
330 330 331 334 335 338 338 337 334 332 335 337 338 339 336 335 335 335 336 336 337 337 336 335 333 333 332 333 333 333 331 327 326 332 334 335 337 338 338 338 337 336 336
329 331 334 335 335 336 338 335 334 336 336 335 336 334 334 333 332 332 333 333 334 333 333 332 331 331 331 330 329 328 326 327 326 329 333 335 337 339 338 334 333 332 332
329 331 334 334 335 335 335 334 334 336 335 334 334 333 332 331 331 331 331 331 332 332 331 329 326 324 324 324 324 324 324 325 326 326 332 334 338 338 338 334 333 331 330
331 331 332 332 335 335 335 335 335 335 334 333 332 331 331 331 329 327 325 326 329 329 326 322 318 315 315 316 318 321 323 323 323 324 326 331 332 335 338 333 332 330 329
331 331 329 329 335 335 335 335 335 334 332 331 330 331 330 327 324 320 318 322 322 320 318 314 309 305 305 305 306 309 312 316 320 322 323 327 331 335 335 334 332 330 329
329 329 326 326 333 333 334 334 333 332 331 330 329 329 327 323 320 318 317 318 316 314 313 312 312 312 308 303 301 300 300 304 309 317 322 325 330 332 334 334 334 333 331
325 326 326 326 332 332 333 332 330 330 330 329 328 326 322 320 318 316 316 315 315 313 314 313 310 307 302 300 299 299 300 301 304 311 318 323 325 324 325 328 328 328 331
323 323 323 325 329 331 332 328 330 328 328 327 325 321 319 317 316 315 314 314 314 314 311 306 302 300 299 298 298 298 298 300 302 307 313 318 321 320 321 321 325 327 327
323 322 321 324 326 326 328 328 328 328 326 323 319 317 314 314 313 312 312 313 313 310 301 298 298 297 297 297 297 297 297 298 298 299 301 307 315 317 317 317 318 320 320
321 321 320 321 323 322 323 325 325 326 322 318 316 314 311 308 307 305 308 310 310 305 299 298 297 297 297 296 296 296 296 296 296 296 297 297 300 307 313 314 315 315 316
319 320 319 318 319 320 319 320 321 323 318 315 313 311 306 301 301 303 306 305 303 300 298 297 297 296 296 296 295 295 295 295 295 295 295 295 297 305 309 311 312 314 314
317 318 318 317 317 317 316 316 316 317 315 312 309 307 301 299 299 301 303 301 299 297 297 296 296 296 296 295 295 294 294 294 294 294 294 294 295 300 306 309 311 312 314
314 316 316 316 315 315 314 313 312 312 311 309 306 304 301 297 298 300 300 297 295 295 295 295 296 296 295 295 294 294 294 293 293 293 293 293 293 296 303 307 310 312 312
311 313 315 315 314 313 313 312 311 310 308 306 305 302 299 297 297 297 297 296 296 295 295 295 296 296 295 295 294 294 293 292 292 293 292 293 293 297 305 308 308 310 311
308 310 312 313 313 312 311 310 308 308 307 305 302 300 299 297 297 297 296 296 296 295 295 295 295 295 295 294 294 293 293 293 292 292 293 294 295 297 304 306 308 309 310
307 307 308 310 312 312 310 309 307 305 305 304 300 299 299 298 297 297 296 296 295 294 294 294 294 294 294 294 294 293 293 292 292 292 293 294 295 296 302 305 305 307 307
307 307 306 306 308 310 310 308 306 303 303 302 299 298 298 298 297 297 296 295 295 294 293 294 294 294 294 294 294 293 292 292 291 293 294 296 296 297 301 302 303 302 302
309 307 306 305 305 306 307 307 305 302 301 301 299 298 298 298 298 296 296 295 294 294 293 293 293 293 293 293 293 292 292 291 291 291 291 293 295 295 295 295 294 294 298
308 307 306 305 303 304 304 303 302 302 301 300 298 298 299 298 297 297 295 294 294 293 292 293 293 293 293 293 292 292 291 291 292 290 290 290 292 293 294 293 292 291 290
306 306 305 304 303 301 300 299 298 300 300 300 298 298 299 298 297 297 295 294 293 293 293 292 292 292 292 292 291 290 291 291 290 290 289 289 291 290 290 290 289 289 288
308 306 304 303 301 301 300 299 299 298 298 300 299 298 298 298 297 296 295 294 293 293 292 292 292 291 291 290 290 289 287 289 291 290 289 288 288 288 288 288 287 287 287
305 305 304 303 302 301 300 298 298 298 298 297 296 297 298 298 297 296 295 293 293 292 292 292 291 291 291 289 290 290 286 288 286 288 288 288 288 288 288 288 287 287 287
306 306 304 303 302 300 299 297 297 298 297 297 296 297 298 298 297 296 294 293 292 292 291 291 291 291 291 290 288 288 288 288 286 286 287 287 287 287 287 287 286 286 286
306 305 305 303 301 299 299 298 297 298 298 298 296 295 295 297 297 296 294 293 292 291 291 291 290 290 290 291 290 287 287 286 286 285 285 286 287 287 286 285 285 285 285
303 302 301 301 300 299 298 298 297 297 297 297 295 295 294 295 296 295 294 293 292 291 291 290 290 290 290 290 290 290 289 286 284 284 283 283 283 285 285 285 285 284 285
Wind_Speed
20 21 20 20 18 17 15 14 14 13 12 12 12 11 10 11 11 10 9 8 5 5 5 5 7 6 7 9 9 7 9 7 8 9 9 10 7 6 8 10 10 10 9
26 23 19 19 20 18 17 15 14 13 12 13 11 10 9 9 7 7 10 12 10 8 4 5 5 8 8 8 5 6 7 6 7 7 9 10 13 7 7 6 10 11 10
28 24 20 17 18 20 18 16 14 14 14 12 10 7 8 8 7 8 7 7 10 7 4 3 6 7 8 8 5 5 5 5 5 5 6 8 11 9 6 7 9 10 9
29 25 22 18 17 19 19 17 17 17 14 12 13 11 10 9 9 9 9 8 8 7 6 5 3 2 2 3 2 3 3 3 4 4 3 6 6 8 7 8 9 10 10
28 26 24 21 16 16 16 17 18 15 14 14 13 13 11 11 10 9 7 7 8 8 7 4 1 0 1 2 4 4 1 2 1 3 3 4 3 5 7 7 8 10 10
27 27 25 23 21 21 21 20 20 17 15 14 14 14 12 12 9 8 8 9 8 7 4 3 2 2 2 1 2 4 2 1 1 2 3 5 6 8 6 7 8 9 9
27 26 24 22 23 21 22 22 22 17 15 15 15 14 13 12 11 10 10 10 9 8 7 8 8 8 5 4 3 1 2 2 2 3 4 5 8 9 10 9 8 8 8
25 26 24 24 22 21 21 22 20 18 18 17 16 15 13 12 11 11 11 11 10 10 10 9 8 7 6 4 3 4 4 4 3 4 4 5 6 9 10 4 4 8 5
23 25 25 25 22 20 20 22 21 20 19 17 17 16 14 14 13 12 12 12 11 11 10 9 7 5 4 4 4 4 4 4 3 3 3 3 4 7 9 8 3 3 3
24 24 26 27 26 25 23 22 21 23 22 21 19 19 18 17 16 16 15 14 13 12 9 7 6 4 3 3 3 3 3 3 3 3 2 1 4 3 6 7 6 5 6
27 28 27 28 27 26 26 26 25 25 24 22 21 22 21 20 20 18 17 15 14 11 8 6 5 3 3 2 2 2 2 2 2 3 2 1 0 2 3 6 8 9 9
33 34 32 31 30 29 28 27 28 27 25 24 25 24 22 20 19 19 19 15 13 11 9 7 5 4 4 4 4 3 3 2 2 2 2 1 2 4 5 6 8 8 8
37 36 37 34 33 32 31 30 30 29 28 26 25 23 22 21 22 22 21 18 15 12 10 9 8 6 5 4 4 4 3 2 2 2 3 2 2 2 4 6 7 7 7
35 38 39 37 36 35 33 34 33 32 31 30 28 26 26 24 23 22 20 17 14 12 11 9 8 6 5 4 4 4 3 3 3 3 4 5 4 2 4 6 7 7 7
36 38 40 41 41 39 37 36 35 34 34 32 30 29 28 27 25 23 20 18 15 13 12 10 8 6 4 3 4 3 3 3 3 4 5 4 2 5 7 7 7 8 9
39 42 40 43 44 42 42 41 40 37 36 33 32 32 31 28 26 25 23 21 18 16 13 11 8 6 5 3 2 3 4 5 5 4 3 4 7 8 10 10 9 9 10
44 41 44 44 45 47 46 44 42 41 38 36 35 34 32 30 29 27 25 23 20 17 15 13 10 7 4 3 2 3 3 4 3 3 5 7 8 10 12 11 10 10 10
39 44 43 44 47 49 50 48 46 43 41 40 38 37 34 33 31 29 27 25 22 19 16 14 11 8 5 2 1 2 3 3 5 8 9 11 12 13 15 14 13 12 10
40 41 44 45 47 50 51 50 48 46 43 42 41 39 37 35 33 32 30 26 24 22 19 16 13 9 6 2 1 2 4 4 8 10 11 10 11 12 11 10 7 7 9
37 39 42 44 46 47 47 47 46 45 44 43 43 41 39 38 36 34 31 28 27 24 21 18 14 10 7 2 1 2 3 3 9 9 9 10 10 10 7 5 3 3 3
31 34 40 42 45 45 43 42 39 49 50 48 47 45 43 41 39 36 34 31 29 27 23 20 16 12 8 4 4 4 7 9 10 10 8 10 10 8 4 1 3 6 8
30 34 37 42 43 47 46 46 31 36 43 52 52 50 47 44 40 38 37 35 33 29 27 25 21 15 10 7 5 4 2 2 6 5 7 11 8 7 6 4 5 6 7
26 31 37 41 44 47 44 38 35 28 26 39 42 47 48 47 45 43 40 38 35 33 31 28 24 18 13 9 8 5 2 3 1 4 8 9 6 1 6 4 5 4 3
28 30 32 36 40 42 42 39 42 36 28 40 43 49 53 49 47 46 43 41 39 37 33 30 26 23 18 14 10 9 7 6 3 0 5 10 11 8 4 4 4 3 2
20 24 30 35 38 41 45 44 40 34 34 31 33 40 46 48 47 46 43 41 40 39 36 32 29 27 24 20 16 11 9 7 7 3 3 4 7 10 8 12 4 3 3
18 19 22 30 33 36 40 42 45 38 31 30 35 37 41 45 48 46 45 44 42 40 38 34 31 28 26 22 22 19 16 8 8 6 2 4 5 6 6 1 4 2 4
Wind_Direction
175 168 169 176 178 178 174 166 163 161 156 154 145 143 142 140 144 137 135 117 97 108 108 92 69 72 59 62 43 31 35 48 53 57 57 51 49 80 65 40 43 43 41
172 168 168 179 181 179 181 176 176 170 164 161 153 138 146 148 148 139 137 132 118 106 97 90 81 63 65 67 61 41 23 47 47 56 63 68 76 81 76 55 46 35 29
176 169 170 179 183 186 186 183 182 173 173 170 166 161 148 139 129 123 128 134 148 117 145 131 75 70 65 60 62 36 40 48 51 55 57 68 83 74 66 40 31 28 25
176 173 171 173 185 188 196 188 181 179 180 178 189 181 164 157 149 133 128 133 132 126 122 113 106 84 78 69 33 30 40 53 50 62 68 70 80 61 45 23 17 21 23
177 180 180 174 179 176 182 182 181 181 187 191 193 182 168 159 157 161 164 155 142 139 131 133 145 157 308 282 286 290 307 48 41 70 74 78 79 38 32 23 15 12 21
179 184 186 179 181 176 181 179 181 181 188 190 186 180 175 176 182 178 172 158 163 167 162 150 136 103 112 217 257 266 259 219 206 106 104 85 81 47 32 20 20 9 14
182 188 191 185 186 194 191 191 192 185 194 192 189 179 181 172 169 168 155 153 149 140 129 117 107 102 104 85 75 102 171 163 128 131 132 120 92 56 56 60 54 36 27
187 189 194 191 191 196 198 199 197 196 197 191 185 183 177 171 163 158 151 144 139 129 123 119 114 106 94 87 73 56 71 111 119 137 144 139 130 50 45 49 48 37 27
192 194 196 195 195 196 194 197 195 197 191 185 185 181 175 171 163 158 150 142 138 133 131 125 115 108 92 72 64 60 55 60 71 114 144 152 167 48 40 34 321 324 294
199 202 200 199 199 201 192 193 192 193 192 190 186 185 183 173 168 162 158 152 148 148 147 147 134 127 100 84 80 70 47 38 51 73 100 147 194 43 31 27 14 326 329
205 207 206 205 205 203 199 197 191 197 196 193 190 193 189 180 180 171 168 164 158 157 156 148 137 127 91 74 72 64 44 40 46 46 31 38 53 316 8 29 34 30 31
208 208 209 209 208 205 204 200 196 200 199 198 198 199 192 186 182 174 176 171 168 170 164 159 149 140 113 89 74 70 63 41 22 7 339 339 31 37 35 40 40 41 42
213 212 210 211 211 209 206 203 203 203 204 204 205 203 193 188 185 183 185 184 180 175 169 161 152 140 125 106 83 63 51 38 21 352 332 312 291 26 42 48 53 55 58
220 219 215 213 212 212 212 209 208 207 207 207 207 203 199 194 192 191 191 188 182 180 175 165 156 143 124 100 77 55 41 25 359 339 327 318 319 359 44 57 69 69 60
229 226 222 217 215 214 213 214 212 212 212 212 208 206 203 203 200 197 195 195 192 189 184 179 171 155 136 92 63 51 37 17 3 350 341 343 357 75 64 72 73 73 70
232 232 227 222 220 217 216 216 216 216 217 215 213 211 209 209 206 203 202 201 199 195 191 185 178 167 145 117 77 37 5 359 353 353 27 67 83 96 83 82 80 78 78
236 234 230 226 223 221 220 220 219 220 218 217 215 212 211 209 208 209 208 206 202 198 194 187 186 182 167 138 83 31 10 358 5 66 96 110 108 100 94 90 82 83 77
239 235 232 227 224 222 222 222 221 222 220 218 216 213 212 212 212 211 210 209 204 202 198 196 195 194 187 173 80 16 356 12 91 98 107 114 111 112 106 106 105 85 73
246 238 232 227 225 222 222 222 222 223 222 221 219 216 215 214 214 214 213 210 206 205 203 200 200 203 202 201 19 10 21 86 120 104 105 118 114 120 122 121 108 97 75
253 241 235 230 225 223 220 219 220 221 221 224 222 220 218 217 216 215 214 212 210 207 204 203 205 203 208 210 124 59 48 110 143 128 109 103 117 117 115 107 92 67 12
250 237 231 226 222 214 207 204 209 214 217 219 220 221 220 219 217 216 214 211 211 211 210 206 203 203 199 191 154 113 79 128 122 114 111 124 120 114 104 43 339 335 331
245 237 231 230 220 215 207 207 207 209 216 218 218 218 217 218 218 217 216 213 212 210 207 207 204 196 195 183 169 134 99 172 200 174 126 137 113 122 14 333 346 352 336
244 239 235 228 221 217 209 200 202 202 214 216 217 220 218 217 215 215 216 216 214 213 212 210 208 205 190 183 188 163 108 222 160 214 202 203 205 301 340 10 351 350 38
266 251 240 233 225 219 210 198 196 200 199 210 209 214 217 216 215 216 215 213 213 214 214 213 211 211 201 185 178 193 187 158 168 216 219 235 237 275 273 326 5 15 78
275 264 246 232 224 218 211 206 201 210 210 208 202 210 215 213 215 216 215 216 215 214 215 213 210 211 211 201 186 171 180 173 178 141 219 249 256 280 289 332 342 89 71
323 288 252 231 225 218 213 208 207 209 209 205 197 201 208 213 212 214 216 217 217 218 215 214 215 214 214 214 209 201 186 172 186 169 179 232 250 283 264 288 132 55 114